SCP
0 0 0 0 0 0 0 0 0 0 0 0 0 0 0 0 0 0 0 0 0 0 0 0 0 0 0 0 0 0 0 0 0 0 0 0 0 0 0 0 0 0 0
0 0 0 0 0 0 0 0 0 0 0 0 0 0 0 0 0 0 0 0 0 0 0 0 0 0 0 0 0 0 0 0 0 0 0 0 0 0 0 0 0 0 0
0 0 0 -0 0 0 -0 0 0 0 0 0 0 0 0 0 0 0 0 0 0 0 0 0 0 0 0 0 0 0 0 0 0 0 0 0 0 0 0 0 0 0 0
0 0 0 0 0 0 0 -0 0 0 0 0 0 0 0 0 0 0 0 0 0 0 0 0 0 0 0 0 0 0 0 0 0 0 0 0 0 0 0 0 0 0 0
0 0 0 0 0 0 0 0 0 0 0 0 0 0 0 0 0 0 0 0 0 0 0 0 0 0 0 0 0 0 0 0 0 0 0 0 0 0 0 0 0 0 0
0 0 0 0 0 0 0 0 0 0 0 0 0 0 0 0 0 0 0 0 0 0 0 0 0 0 0 0 0 0 0 0 0 0 0 0 0 0 0 0 0 0 0
-0 0 0 0 0 0 0 0 0 0 0 0 0 0 0 0 0 0 0 0 0 0 0 0 0 0 0 0 0 0 0 0 0 0 0 0 0 0 0 0 0 0 0
0 -0 0 0 0 1 0 0 0 0 0 0 0 0 0 0 0 0 0 0 0 0 0 0 0 0 0 0 0 0 0 0 0 0 0 0 0 0 0 0 0 0 0
0 0 0 0 0 0 0 0 0 0 0 0 0 0 0 0 0 0 0 0 0 0 0 0 0 0 0 0 0 0 0 0 0 0 0 0 0 0 0 0 0 0 0
-0 0 0 0 0 0 0 0 0 0 0 0 0 0 0 0 0 0 0 0 0 0 0 0 0 0 0 0 0 0 0 0 0 0 0 0 0 0 0 0 0 0 0
-0 0 0 0 0 0 0 -0 -0 -0 -0 0 0 0 0 0 0 0 0 0 0 0 0 0 0 0 0 0 0 0 0 0 0 0 0 0 0 0 0 0 0 0 0
0 0 0 0 0 0 0 0 0 0 0 0 0 0 0 0 0 0 0 0 0 0 0 0 0 0 0 0 0 0 0 0 0 0 0 0 0 0 0 0 0 0 0
0 0 0 0 0 0 0 0 0 0 0 0 0 0 0 0 0 0 0 0 0 0 0 0 0 0 0 0 0 0 0 0 0 0 0 0 0 0 0 0 0 0 0
0 0 0 0 0 0 0 0 0 0 0 0 0 0 0 0 0 0 0 0 0 0 0 0 0 0 0 0 0 0 0 0 0 0 0 0 0 0 0 0 0 0 0
0 0 0 0 0 0 0 0 0 0 0 0 0 0 0 0 0 0 0 0 0 0 0 0 0 0 0 0 0 0 0 0 0 0 0 0 0 0 0 0 0 0 0
0 0 0 0 0 0 0 0 0 0 0 0 0 0 0 0 0 0 0 0 0 0 0 0 0 0 0 0 0 0 0 0 0 0 0 0 0 0 0 0 0 0 0
0 0 0 0 0 0 0 0 0 0 0 0 0 0 0 0 0 0 0 0 0 0 0 0 -0 -0 -0 0 0 0 0 0 0 0 0 0 0 0 0 0 0 0 0
0 0 0 0 0 0 0 0 0 0 0 0 0 0 0 0 -0 -0 -0 -0 -0 -0 -0 -0 -0 -0 -0 -0 -0 0 0 0 0 0 0 0 0 0 0 0 0 0 0
0 0 0 0 0 0 0 0 0 0 0 0 0 -0 0 -0 -0 -0 -0 -0 -0 -0 -0 -0 -0 -0 -0 -0 -0 0 0 0 0 0 0 0 0 0 0 0 0 0 0
0 0 0 0 0 0 0 -0 -0 -0 -0 -0 -0 -0 0 0 0 -0 0 0 0 -0 0 -0 -0 -0 -0 -0 -0 0 0 0 0 0 0 0 0 0 0 0 0 0 0
0 0 0 0 0 0 -0 -0 -0 -0 -0 -0 -0 -0 -0 0 -0 -0 0 0 0 0 0 -0 -0 0 0 0 -0 0 0 0 0 0 0 0 0 0 0 0 0 0 0
0 0 0 0 0 0 -0 -0 -0 0 -0 -0 0 -0 -0 0 -0 0 -0 -0 0 0 0 0 0 0 0 0 0 0 0 0 0 0 0 0 0 0 0 0 0 0 0
0 0 0 -0 -0 -0 -0 -0 -0 0 0 -0 -0 -0 -0 -0 -0 -0 0 -0 0 0 0 0 0 0 0 0 0 0 0 0 0 0 0 0 0 0 0 0 0 0 0
-0 -0 0 -0 -0 0 -0 -0 -0 -0 -0 0 0 -0 0 -0 -0 0 0 0 0 0 -0 0 0 0 0 0 0 0 0 0 0 0 0 0 0 0 0 0 0 0 0
0 0 -0 -0 0 -0 -0 0 0 0 -0 0 0 0 0 0 0 0 0 0 0 0 0 -0 -0 0 0 0 0 0 0 0 0 0 0 0 0 0 0 0 0 0 0
0 0 0 0 -0 -0 -0 -0 -0 0 0 0 0 0 0 -0 -0 -0 0 0 -0 -0 -0 -0 0 0 0 0 0 0 0 0 0 0 0 0 0 0 0 0 0 0 0
Wind_Speed_500mb
76 77 90 98 101 94 89 93 86 86 85 80 76 74 70 70 68 66 64 59 53 50 49 49 49 46 42 38 33 32 28 20 19 23 30 29 22 14 12 9 3 2 2
55 88 91 100 104 115 105 99 96 99 97 86 82 79 77 74 71 68 62 56 51 46 42 43 45 43 38 34 31 34 30 20 24 35 46 30 25 22 16 10 8 9 8
46 48 69 108 105 115 113 108 111 108 104 105 91 84 80 76 70 62 55 48 44 42 40 39 39 39 38 37 35 31 28 26 32 48 32 26 17 39 27 20 17 15 12
36 40 33 40 36 64 110 114 120 116 108 103 98 93 92 82 72 61 50 44 41 40 37 37 36 35 31 29 29 27 27 29 32 57 47 28 27 28 28 30 26 21 15
44 41 34 22 28 44 76 105 115 113 105 98 93 92 85 76 65 53 46 41 36 34 32 30 30 28 27 27 24 24 26 31 32 41 61 40 27 29 42 49 39 30 24
62 53 71 99 95 60 66 82 98 104 102 98 93 92 86 78 68 57 47 36 26 18 17 21 22 21 19 21 23 23 25 26 27 29 31 39 41 45 41 46 49 39 37
58 59 39 72 69 102 93 84 87 94 93 91 90 84 76 68 64 61 49 34 24 14 16 19 20 21 20 20 21 24 23 21 21 21 25 25 24 37 39 49 56 52 51
48 37 20 20 74 64 67 79 80 92 80 78 80 76 75 72 68 55 42 28 19 17 18 19 17 16 15 16 20 23 22 18 15 16 17 17 21 28 34 46 51 55 48
39 30 6 7 7 31 55 69 45 50 62 42 23 70 69 64 58 56 38 31 23 23 17 13 16 19 19 19 19 20 21 18 15 14 12 11 15 18 24 28 44 41 41
29 22 15 10 21 42 43 40 45 43 39 33 34 18 32 45 46 35 39 29 24 14 9 11 16 19 19 21 22 22 22 17 17 14 13 15 16 15 17 21 28 35 26
22 19 19 31 45 20 28 30 42 40 22 19 5 6 10 14 19 30 31 25 18 12 10 15 20 23 21 22 22 22 21 19 18 17 14 15 13 11 11 11 11 11 10
15 11 18 26 37 21 17 9 14 10 14 15 21 24 24 28 32 29 29 24 18 13 14 17 23 23 24 22 19 21 20 18 18 18 15 15 14 13 14 9 7 8 10
6 4 11 17 25 25 19 19 25 19 21 27 25 30 24 27 35 28 19 14 12 13 16 18 20 25 23 22 20 20 21 20 15 13 9 9 7 5 4 6 7 8 11
13 7 2 13 18 16 14 22 29 25 20 23 24 27 23 16 15 16 13 7 4 9 16 18 19 21 22 20 19 17 13 11 9 7 6 5 2 3 4 7 11 17 18
13 15 13 8 12 14 20 27 27 27 26 22 20 13 8 11 20 27 17 10 10 13 16 18 21 21 23 22 18 16 11 6 4 6 7 5 6 8 10 12 13 20 26
15 10 15 25 16 20 27 32 34 30 20 9 4 5 7 14 20 22 32 27 27 28 24 21 18 23 24 19 16 15 12 9 6 3 4 8 10 9 11 17 21 27 32
19 23 22 20 15 22 27 26 21 11 5 7 12 17 15 14 13 12 19 27 28 28 24 19 22 20 20 17 15 16 12 13 9 5 5 7 11 14 18 20 24 28 37
25 26 22 19 23 26 17 11 12 6 13 18 23 13 12 12 18 17 20 23 21 20 17 16 20 14 14 17 14 14 13 14 12 13 11 16 21 23 30 38 39 41 42
20 19 12 11 11 15 12 14 19 26 20 15 13 18 9 8 10 16 18 21 18 14 13 11 11 10 12 14 13 14 17 19 19 19 21 25 34 37 43 47 49 51 46
9 13 14 14 15 16 20 28 27 22 23 19 14 16 15 15 19 20 17 15 15 12 10 11 10 10 13 14 15 19 24 30 29 29 31 35 41 45 48 54 55 55 45
18 9 13 13 16 24 31 23 21 21 15 11 13 16 18 17 18 15 11 7 6 7 7 8 10 13 16 16 22 26 31 35 34 34 35 39 44 44 42 44 47 43 37
23 18 21 21 23 22 21 19 20 13 14 17 16 23 19 17 19 16 14 12 9 9 11 14 15 19 20 23 24 29 31 33 37 39 40 42 43 38 41 40 31 33 40
24 24 26 22 23 27 26 21 10 11 18 16 15 17 19 17 14 12 11 13 12 15 20 22 24 23 25 26 26 28 30 33 32 31 33 31 35 39 33 33 35 40 34
36 27 25 27 26 28 27 21 11 7 14 14 21 18 16 19 17 15 14 16 20 23 26 28 28 27 27 25 26 30 30 27 28 27 30 31 33 33 34 34 29 24 27
31 35 34 30 26 25 28 26 22 20 21 23 25 24 19 24 22 21 22 22 21 24 30 30 32 32 31 25 27 24 24 29 27 28 28 31 33 33 30 26 24 28 34
37 37 35 32 28 28 30 30 33 35 29 28 29 27 29 29 29 28 27 25 29 27 24 22 22 24 28 29 22 21 20 20 21 24 25 30 33 32 27 29 32 36 42
Wind_Direction_500mb
215 216 214 214 216 213 209 205 204 200 198 201 203 202 203 202 205 208 211 218 228 236 243 243 238 239 240 242 248 259 261 253 233 211 176 161 169 188 172 146 122 120 122
243 217 212 213 214 213 212 207 205 201 204 206 206 205 199 198 203 207 214 222 232 238 236 234 234 236 241 244 248 259 258 235 205 193 177 153 161 180 164 145 123 115 102
266 242 225 215 218 214 209 208 205 204 209 211 208 204 203 203 203 207 213 218 226 233 235 236 237 239 242 250 254 255 247 228 198 192 182 164 178 160 161 165 142 124 115
298 257 290 267 251 223 211 208 207 205 209 210 212 214 212 210 211 212 213 222 229 234 239 243 244 246 247 251 251 247 235 222 207 196 198 197 193 173 164 166 155 145 138
356 312 264 245 276 226 211 212 209 206 207 210 214 216 214 214 213 207 214 222 227 235 243 248 252 255 247 243 239 234 224 216 210 205 210 213 202 193 179 164 163 161 153
3 338 227 229 240 233 225 214 210 207 208 209 210 214 214 213 209 206 205 206 215 217 244 243 240 237 233 228 224 219 216 213 212 217 214 219 208 204 192 176 165 164 155
16 10 217 209 224 225 221 222 214 207 203 206 207 210 209 214 217 215 212 206 205 222 225 223 226 228 220 212 208 207 211 210 212 211 215 210 206 203 198 177 168 161 159
19 21 50 216 228 229 228 221 213 206 206 209 207 206 204 207 208 204 189 175 187 209 209 206 204 200 191 188 190 198 199 199 199 193 190 193 186 182 180 176 176 162 166
15 21 14 53 126 140 178 185 181 189 190 175 175 190 194 194 188 174 166 180 182 184 184 186 191 184 176 172 172 183 184 176 171 164 160 164 164 171 179 184 178 190 170
9 16 51 152 69 99 101 93 90 41 42 57 50 59 147 148 159 146 154 158 160 159 168 184 183 178 171 171 171 172 168 180 165 155 151 146 144 151 154 158 176 195 201
14 43 86 115 123 131 99 73 44 21 337 14 90 1 148 129 139 159 143 152 148 157 179 181 178 167 158 162 163 159 156 169 165 153 153 143 131 134 135 137 144 152 168
8 61 117 127 128 138 139 131 7 17 180 153 152 143 127 131 146 156 155 153 155 162 182 182 179 164 162 150 156 151 145 145 142 137 134 131 130 123 103 100 101 85 63
14 98 125 131 134 139 117 96 107 114 137 127 122 104 113 134 136 148 151 144 155 165 168 167 171 165 154 149 144 142 139 135 125 111 108 107 107 126 100 58 46 26 4
311 287 220 161 160 149 129 127 126 115 117 114 116 118 124 122 129 147 145 159 170 177 153 155 161 158 156 157 152 146 140 126 113 98 87 50 352 319 316 331 346 341 332
291 289 261 162 136 177 175 160 146 141 149 143 138 121 116 194 177 160 164 164 209 195 182 181 157 162 165 175 171 170 151 107 103 104 80 28 332 311 303 308 324 323 320
273 219 186 171 185 214 183 163 155 146 145 136 112 270 204 198 193 185 167 180 197 209 207 206 201 180 177 175 185 190 193 186 154 119 32 358 335 335 321 325 320 314 310
247 219 207 204 204 178 158 148 142 131 76 119 114 111 131 131 141 147 160 185 205 213 205 203 210 199 205 213 216 217 197 208 211 226 292 323 337 319 307 300 298 314 308
252 218 222 211 189 168 154 189 160 181 182 143 135 165 151 147 147 142 162 175 172 177 184 204 209 211 209 198 198 206 228 238 246 266 282 304 310 305 299 293 301 304 306
250 237 203 164 217 219 192 180 153 138 134 140 147 137 181 173 179 186 150 138 135 151 161 174 186 187 200 206 202 227 250 257 259 266 276 284 288 286 281 284 288 292 305
191 242 235 229 221 201 156 148 150 150 158 164 183 157 153 130 122 121 125 126 132 141 162 179 184 197 182 202 228 243 257 267 278 283 283 287 293 295 293 292 284 286 300
215 228 231 192 174 167 169 165 176 174 177 198 192 197 189 165 159 168 168 174 195 209 220 228 227 250 252 249 260 264 269 275 282 285 289 291 289 295 293 292 291 290 289
211 209 197 174 187 191 211 208 236 228 240 209 215 206 196 191 193 199 208 219 237 255 265 270 271 272 276 278 279 279 277 279 280 282 282 282 281 283 285 285 281 285 290
213 210 209 212 202 208 224 234 229 261 223 186 196 199 189 179 189 195 217 233 260 273 270 272 275 276 275 276 281 287 285 284 279 277 276 278 279 281 280 285 289 290 287
206 203 196 202 210 213 216 220 215 218 208 207 196 196 220 206 213 229 247 265 270 274 278 274 278 279 271 273 284 285 285 280 277 277 282 282 277 277 280 285 284 274 275
201 207 207 208 210 209 219 218 219 227 238 226 222 233 234 218 228 245 247 260 272 281 285 284 279 276 277 274 276 283 288 288 288 284 282 280 277 274 274 269 259 262 268
211 211 215 219 216 216 226 229 234 232 232 239 231 225 226 230 239 241 251 259 268 275 279 285 284 274 268 273 271 282 287 300 292 290 296 300 290 274 266 261 265 269 274
Wind_Speed_850mb
76 77 90 98 101 94 89 93 86 86 85 80 76 74 70 70 68 66 64 59 53 50 49 49 49 46 42 38 33 32 28 20 19 23 30 29 22 14 12 9 3 2 2
55 88 91 100 104 115 105 99 96 99 97 86 82 79 77 74 71 68 62 56 51 46 42 43 45 43 38 34 31 34 30 20 24 35 46 30 25 22 16 10 8 9 8
46 48 69 108 105 115 113 108 111 108 104 105 91 84 80 76 70 62 55 48 44 42 40 39 39 39 38 37 35 31 28 26 32 48 32 26 17 39 27 20 17 15 12
36 40 33 40 36 64 110 114 120 116 108 103 98 93 92 82 72 61 50 44 41 40 37 37 36 35 31 29 29 27 27 29 32 57 47 28 27 28 28 30 26 21 15
44 41 34 22 28 44 76 105 115 113 105 98 93 92 85 76 65 53 46 41 36 34 32 30 30 28 27 27 24 24 26 31 32 41 61 40 27 29 42 49 39 30 24
62 53 71 99 95 60 66 82 98 104 102 98 93 92 86 78 68 57 47 36 26 18 17 21 22 21 19 21 23 23 25 26 27 29 31 39 41 45 41 46 49 39 37
58 59 39 72 69 102 93 84 87 94 93 91 90 84 76 68 64 61 49 34 24 14 16 19 20 21 20 20 21 24 23 21 21 21 25 25 24 37 39 49 56 52 51
48 37 20 20 74 64 67 79 80 92 80 78 80 76 75 72 68 55 42 28 19 17 18 19 17 16 15 16 20 23 22 18 15 16 17 17 21 28 34 46 51 55 48
39 30 6 7 7 31 55 69 45 50 62 42 23 70 69 64 58 56 38 31 23 23 17 13 16 19 19 19 19 20 21 18 15 14 12 11 15 18 24 28 44 41 41
29 22 15 10 21 42 43 40 45 43 39 33 34 18 32 45 46 35 39 29 24 14 9 11 16 19 19 21 22 22 22 17 17 14 13 15 16 15 17 21 28 35 26
22 19 19 31 45 20 28 30 42 40 22 19 5 6 10 14 19 30 31 25 18 12 10 15 20 23 21 22 22 22 21 19 18 17 14 15 13 11 11 11 11 11 10
15 11 18 26 37 21 17 9 14 10 14 15 21 24 24 28 32 29 29 24 18 13 14 17 23 23 24 22 19 21 20 18 18 18 15 15 14 13 14 9 7 8 10
6 4 11 17 25 25 19 19 25 19 21 27 25 30 24 27 35 28 19 14 12 13 16 18 20 25 23 22 20 20 21 20 15 13 9 9 7 5 4 6 7 8 11
13 7 2 13 18 16 14 22 29 25 20 23 24 27 23 16 15 16 13 7 4 9 16 18 19 21 22 20 19 17 13 11 9 7 6 5 2 3 4 7 11 17 18
13 15 13 8 12 14 20 27 27 27 26 22 20 13 8 11 20 27 17 10 10 13 16 18 21 21 23 22 18 16 11 6 4 6 7 5 6 8 10 12 13 20 26
15 10 15 25 16 20 27 32 34 30 20 9 4 5 7 14 20 22 32 27 27 28 24 21 18 23 24 19 16 15 12 9 6 3 4 8 10 9 11 17 21 27 32
19 23 22 20 15 22 27 26 21 11 5 7 12 17 15 14 13 12 19 27 28 28 24 19 22 20 20 17 15 16 12 13 9 5 5 7 11 14 18 20 24 28 37
25 26 22 19 23 26 17 11 12 6 13 18 23 13 12 12 18 17 20 23 21 20 17 16 20 14 14 17 14 14 13 14 12 13 11 16 21 23 30 38 39 41 42
20 19 12 11 11 15 12 14 19 26 20 15 13 18 9 8 10 16 18 21 18 14 13 11 11 10 12 14 13 14 17 19 19 19 21 25 34 37 43 47 49 51 46
9 13 14 14 15 16 20 28 27 22 23 19 14 16 15 15 19 20 17 15 15 12 10 11 10 10 13 14 15 19 24 30 29 29 31 35 41 45 48 54 55 55 45
18 9 13 13 16 24 31 23 21 21 15 11 13 16 18 17 18 15 11 7 6 7 7 8 10 13 16 16 22 26 31 35 34 34 35 39 44 44 42 44 47 43 37
23 18 21 21 23 22 21 19 20 13 14 17 16 23 19 17 19 16 14 12 9 9 11 14 15 19 20 23 24 29 31 33 37 39 40 42 43 38 41 40 31 33 40
24 24 26 22 23 27 26 21 10 11 18 16 15 17 19 17 14 12 11 13 12 15 20 22 24 23 25 26 26 28 30 33 32 31 33 31 35 39 33 33 35 40 34
36 27 25 27 26 28 27 21 11 7 14 14 21 18 16 19 17 15 14 16 20 23 26 28 28 27 27 25 26 30 30 27 28 27 30 31 33 33 34 34 29 24 27
31 35 34 30 26 25 28 26 22 20 21 23 25 24 19 24 22 21 22 22 21 24 30 30 32 32 31 25 27 24 24 29 27 28 28 31 33 33 30 26 24 28 34
37 37 35 32 28 28 30 30 33 35 29 28 29 27 29 29 29 28 27 25 29 27 24 22 22 24 28 29 22 21 20 20 21 24 25 30 33 32 27 29 32 36 42
Wind_Direction_850mb
215 216 214 214 216 213 209 205 204 200 198 201 203 202 203 202 205 208 211 218 228 236 243 243 238 239 240 242 248 259 261 253 233 211 176 161 169 188 172 146 122 120 122
243 217 212 213 214 213 212 207 205 201 204 206 206 205 199 198 203 207 214 222 232 238 236 234 234 236 241 244 248 259 258 235 205 193 177 153 161 180 164 145 123 115 102
266 242 225 215 218 214 209 208 205 204 209 211 208 204 203 203 203 207 213 218 226 233 235 236 237 239 242 250 254 255 247 228 198 192 182 164 178 160 161 165 142 124 115
298 257 290 267 251 223 211 208 207 205 209 210 212 214 212 210 211 212 213 222 229 234 239 243 244 246 247 251 251 247 235 222 207 196 198 197 193 173 164 166 155 145 138
356 312 264 245 276 226 211 212 209 206 207 210 214 216 214 214 213 207 214 222 227 235 243 248 252 255 247 243 239 234 224 216 210 205 210 213 202 193 179 164 163 161 153
3 338 227 229 240 233 225 214 210 207 208 209 210 214 214 213 209 206 205 206 215 217 244 243 240 237 233 228 224 219 216 213 212 217 214 219 208 204 192 176 165 164 155
16 10 217 209 224 225 221 222 214 207 203 206 207 210 209 214 217 215 212 206 205 222 225 223 226 228 220 212 208 207 211 210 212 211 215 210 206 203 198 177 168 161 159
19 21 50 216 228 229 228 221 213 206 206 209 207 206 204 207 208 204 189 175 187 209 209 206 204 200 191 188 190 198 199 199 199 193 190 193 186 182 180 176 176 162 166
15 21 14 53 126 140 178 185 181 189 190 175 175 190 194 194 188 174 166 180 182 184 184 186 191 184 176 172 172 183 184 176 171 164 160 164 164 171 179 184 178 190 170
9 16 51 152 69 99 101 93 90 41 42 57 50 59 147 148 159 146 154 158 160 159 168 184 183 178 171 171 171 172 168 180 165 155 151 146 144 151 154 158 176 195 201
14 43 86 115 123 131 99 73 44 21 337 14 90 1 148 129 139 159 143 152 148 157 179 181 178 167 158 162 163 159 156 169 165 153 153 143 131 134 135 137 144 152 168
8 61 117 127 128 138 139 131 7 17 180 153 152 143 127 131 146 156 155 153 155 162 182 182 179 164 162 150 156 151 145 145 142 137 134 131 130 123 103 100 101 85 63
14 98 125 131 134 139 117 96 107 114 137 127 122 104 113 134 136 148 151 144 155 165 168 167 171 165 154 149 144 142 139 135 125 111 108 107 107 126 100 58 46 26 4
311 287 220 161 160 149 129 127 126 115 117 114 116 118 124 122 129 147 145 159 170 177 153 155 161 158 156 157 152 146 140 126 113 98 87 50 352 319 316 331 346 341 332
291 289 261 162 136 177 175 160 146 141 149 143 138 121 116 194 177 160 164 164 209 195 182 181 157 162 165 175 171 170 151 107 103 104 80 28 332 311 303 308 324 323 320
273 219 186 171 185 214 183 163 155 146 145 136 112 270 204 198 193 185 167 180 197 209 207 206 201 180 177 175 185 190 193 186 154 119 32 358 335 335 321 325 320 314 310
247 219 207 204 204 178 158 148 142 131 76 119 114 111 131 131 141 147 160 185 205 213 205 203 210 199 205 213 216 217 197 208 211 226 292 323 337 319 307 300 298 314 308
252 218 222 211 189 168 154 189 160 181 182 143 135 165 151 147 147 142 162 175 172 177 184 204 209 211 209 198 198 206 228 238 246 266 282 304 310 305 299 293 301 304 306
250 237 203 164 217 219 192 180 153 138 134 140 147 137 181 173 179 186 150 138 135 151 161 174 186 187 200 206 202 227 250 257 259 266 276 284 288 286 281 284 288 292 305
191 242 235 229 221 201 156 148 150 150 158 164 183 157 153 130 122 121 125 126 132 141 162 179 184 197 182 202 228 243 257 267 278 283 283 287 293 295 293 292 284 286 300
215 228 231 192 174 167 169 165 176 174 177 198 192 197 189 165 159 168 168 174 195 209 220 228 227 250 252 249 260 264 269 275 282 285 289 291 289 295 293 292 291 290 289
211 209 197 174 187 191 211 208 236 228 240 209 215 206 196 191 193 199 208 219 237 255 265 270 271 272 276 278 279 279 277 279 280 282 282 282 281 283 285 285 281 285 290
213 210 209 212 202 208 224 234 229 261 223 186 196 199 189 179 189 195 217 233 260 273 270 272 275 276 275 276 281 287 285 284 279 277 276 278 279 281 280 285 289 290 287
206 203 196 202 210 213 216 220 215 218 208 207 196 196 220 206 213 229 247 265 270 274 278 274 278 279 271 273 284 285 285 280 277 277 282 282 277 277 280 285 284 274 275
201 207 207 208 210 209 219 218 219 227 238 226 222 233 234 218 228 245 247 260 272 281 285 284 279 276 277 274 276 283 288 288 288 284 282 280 277 274 274 269 259 262 268
211 211 215 219 216 216 226 229 234 232 232 239 231 225 226 230 239 241 251 259 268 275 279 285 284 274 268 273 271 282 287 300 292 290 296 300 290 274 266 261 265 269 274